IRIDIUM 151 (43074 NORAD) Tracking and Keplerian Element Data

This shows tracking and keplerian element data for the satellite.

Feedback or suggestion? Click here.




ElementValue
Catalog43074
NameIRIDIUM 151
Epoch Orbit24921
Epoch Day269.22994965
Epoch Year2022
RAAN170.4249
Inclination86.4039
Eccentricity0.0001844
Argument of Perigee81.83
Mean Anonmoly278.3105
Mean Motion14.34217625
Decay Rate2.08E-06
L11 43074U 17083E 22269.22994965 .00000208 00000+0 67333-4 0 9999
L22 43074 86.4039 170.4249 0001844 81.8300 278.3105 14.34217625249213

Live tracking and technical data element details for IRIDIUM 151 (NORAD 43074). IRIDIUM 151 can be tracked NOW for your location showing map with azimuth and elevation plus other details from your city location.

Track the satellite on the map from your city or location and see movement details for azimuth, elevation, latitude, longitude, range, height, and movement on the map or in text.







IsCatalogInMostPopularTable: catalog: 43074, numindb: 662
Update: records affected: 1



GetName: 43074 IRIDIUM 151

Hit Count: updated at: Thu, 29 Sep 2022 10:51:41 GMT